Terminal Aerodrome Forecast
Issued by NWS Wilmington, OH

Current Version | Previous Version | Graphics & Text | Print | Product List | Glossary On
Versions: 1 2 3 4 5 6 7 8 9 10 11 12 13 14 15 16 17 18 19 20 21 22 23
000
FTUS41 KILN 301700
TAFILN
TAF
KILN 301737Z 3018/0118 31006KT P6SM BKN070
     FM302200 33005KT P6SM SCT070
     FM010000 VRB03KT P6SM SCT250
     FM010700 VRB02KT 4SM BR SCT250
      TEMPO 0108/0112 1SM BR
     FM011300 VRB03KT P6SM SCT250=

USA.gov is the U.S. government's official web portal to all federal, state and local government web resources and services.